TimeAKDT,TemperatureF,Dew PointF,Humidity,Sea Level PressureIn,VisibilityMPH,Wind Direction,Wind SpeedMPH,Gust SpeedMPH,PrecipitationIn,Events,Conditions,WindDirDegrees,DateUTC
12:53 AM,23.0,12.9,65,29.54,10.0,South,11.5,-,N/A,,Partly Cloudy,170,2013-04-07 08:53:00
1:53 AM,21.9,12.0,66,29.55,10.0,South,15.0,-,N/A,,Clear,170,2013-04-07 09:53:00
2:53 AM,21.9,10.9,63,29.56,10.0,South,17.3,-,N/A,,Clear,180,2013-04-07 10:53:00
3:53 AM,19.9,10.0,65,29.57,10.0,South,18.4,-,N/A,,Clear,170,2013-04-07 11:53:00
4:53 AM,19.9,10.0,65,29.58,10.0,South,13.8,-,N/A,,Clear,170,2013-04-07 12:53:00
5:53 AM,19.0,9.0,65,29.59,10.0,South,13.8,-,N/A,,Clear,170,2013-04-07 13:53:00
6:53 AM,19.0,9.0,65,29.60,10.0,South,15.0,-,N/A,,Clear,170,2013-04-07 14:53:00
7:53 AM,18.0,9.0,68,29.61,10.0,South,16.1,-,N/A,,Clear,170,2013-04-07 15:53:00
8:53 AM,19.0,8.1,62,29.62,10.0,South,19.6,25.3,N/A,,Partly Cloudy,170,2013-04-07 16:53:00
9:53 AM,19.9,9.0,62,29.64,10.0,South,17.3,-,N/A,,Clear,170,2013-04-07 17:53:00
10:53 AM,21.0,9.0,60,29.65,10.0,South,19.6,-,N/A,,Clear,180,2013-04-07 18:53:00
11:53 AM,21.9,8.1,55,29.68,10.0,South,19.6,27.6,N/A,,Partly Cloudy,170,2013-04-07 19:53:00
12:53 PM,21.9,9.0,58,29.70,10.0,SSW,19.6,26.5,N/A,,Mostly Cloudy,200,2013-04-07 20:53:00
1:53 PM,21.9,10.0,60,29.72,10.0,SSW,20.7,25.3,N/A,,Mostly Cloudy,200,2013-04-07 21:53:00
2:53 PM,23.0,8.1,53,29.74,10.0,SSW,15.0,-,N/A,,Scattered Clouds,210,2013-04-07 22:53:00
3:53 PM,23.0,14.0,68,29.75,10.0,SW,13.8,21.9,N/A,,Mostly Cloudy,220,2013-04-07 23:53:00
4:53 PM,21.0,14.0,74,29.77,3.0,WSW,9.2,-,0.00,Snow,Light Snow,240,2013-04-08 00:53:00
5:00 PM,21.2,12.2,68,29.76,4.0,SW,10.4,16.1,0.00,Snow,Light Snow,230,2013-04-08 01:00:00
5:11 PM,21.2,10.4,63,29.76,10.0,SW,10.4,-,0.00,,Partly Cloudy,220,2013-04-08 01:11:00
5:53 PM,21.9,8.1,55,29.77,10.0,SW,10.4,-,0.00,,Partly Cloudy,220,2013-04-08 01:53:00
6:53 PM,21.0,3.0,46,29.77,10.0,SW,4.6,-,N/A,,Clear,220,2013-04-08 02:53:00
7:53 PM,21.0,3.0,46,29.78,10.0,West,4.6,-,N/A,,Clear,280,2013-04-08 03:53:00
8:53 PM,19.9,3.9,50,29.78,10.0,Calm,Calm,-,N/A,,Clear,0,2013-04-08 04:53:00
9:53 PM,16.0,5.0,62,29.79,10.0,Calm,Calm,-,N/A,,Clear,0,2013-04-08 05:53:00
10:53 PM,12.9,3.9,67,29.80,10.0,NNE,3.5,-,N/A,,Clear,20,2013-04-08 06:53:00
11:53 PM,10.0,1.9,70,29.80,10.0,North,3.5,-,N/A,,Clear,10,2013-04-08 07:53:00